Location: Ladrillo (historical)
(32.8195°N, 117.2231°W)
Time: 21:27:48
(UTC+00:00)

Meteor 1-31 Rocket - Pass Details

Date: 29 October 2020
Orbit: 521 x 546 km, 97.6° (Epoch: 26 November)

Event Time Altitude Azimuth Distance (km) Brightness Sun altitude
Rises 12:07:33 0° 20° (NNE) 2,716 6.6 -25.1°
Reaches altitude 10° 12:09:47 10° 28° (NNE) 1,817 5.8 -24.6°
Maximum altitude 12:13:30 40° 99° (E) 815 4.1 -23.9°
Drops below altitude 10° 12:17:10 10° 169° (S) 1,798 5.6 -23.1°
Sets 12:19:21 0° 177° (S) 2,681 6.4 -22.6°
